Weather History for Charlevoix, MI

Change the Weather History Date:

Friday, September 13, 2013

  Actual Average Record
Temperature  
Mean Temperature 52 °F -  
Max Temperature 55 °F 71 °F 84 °F (2004)
Min Temperature 45 °F 57 °F 41 °F (2014)
Degree Days  
Heating Degree Days 14    
Growing Degree Days 2 (Base 50)    
Moisture  
Dew Point 42 °F    
Average Humidity 68    
Maximum Humidity 88    
Minimum Humidity 53    
Precipitation  
Precipitation 0.00 in - - ()
Sea Level Pressure  
Sea Level Pressure 30.17 in    
Wind  
Wind Speed 13 mph (North)    
Max Wind Speed 18 mph    
Max Gust Speed 28 mph    
Visibility 10 miles    
Events Rain    
Averages and records for this station are not official NWS values.
T = Trace of Precipitation, MM = Missing Value Source: NWS Daily Summary

Daily Weather History Graph

Daily Weather History Graph

Search for Another Location

Airport:

Trip Planner

Search our weather history database for the weather conditions in past years. The results will help you decide how hot, cold, wet, or windy it might be!

Date:

Astronomy

Sep. 13, 2013 Rise Set
Actual Time 7:17 AM EDT 7:55 PM EDT
Civil Twilight 6:47 AM EDT 8:25 PM EDT
Nautical Twilight 6:12 AM EDT 9:00 PM EDT
Astronomical Twilight 5:35 AM EDT 9:36 PM EDT
Moon 3:56 PM EDT (9/13) 12:33 AM EDT (9/13)
Length of Visible Light 13h 37m
Length of Day
12h 37m
First Quarter, 61% of the Moon is Illuminated
Sep 13
First Quarter
Sep 19
Full
Sep 26
Last Quarter
Oct 4
New
Oct 11
First Quarter

Hourly Weather History & Observations

Time (EDT) Temp. Dew Point Humidity Pressure Visibility Wind Dir Wind Speed Gust Speed Precip Events Conditions
12:15 AM 52.7 °F 48.6 °F 86% 30.10 in 10.0 mi North 15.0 mph 25.3 mph N/A   Overcast
12:34 AM 52.9 °F 47.7 °F 82% 30.09 in 10.0 mi North 18.4 mph 24.2 mph N/A   Overcast
12:55 AM 52.2 °F 47.5 °F 84% 30.09 in 10.0 mi North 15.0 mph 25.3 mph N/A   Overcast
1:14 AM 52.7 °F 46.9 °F 81% 30.10 in 10.0 mi North 16.1 mph 25.3 mph N/A   Overcast
1:34 AM 51.8 °F 48.4 °F 88% 30.10 in 7.0 mi North 17.3 mph 27.6 mph N/A Rain Light Rain
1:55 AM 51.1 °F 47.3 °F 87% 30.10 in 7.0 mi North 17.3 mph 23.0 mph N/A Rain Light Rain
2:14 AM 51.8 °F 46.4 °F 82% 30.11 in 10.0 mi North 18.4 mph 25.3 mph N/A   Overcast
2:35 AM 51.6 °F 47.1 °F 85% 30.11 in 10.0 mi NNE 17.3 mph 23.0 mph N/A   Overcast
2:54 AM 51.6 °F 45.1 °F 79% 30.11 in 10.0 mi North 17.3 mph 24.2 mph N/A   Overcast
3:14 AM 51.3 °F 43.3 °F 74% 30.12 in 10.0 mi North 16.1 mph 25.3 mph N/A   Overcast
3:35 AM 51.1 °F 41.9 °F 71% 30.12 in 10.0 mi North 16.1 mph 21.9 mph N/A   Overcast
3:54 AM 50.9 °F 41.2 °F 69% 30.12 in 10.0 mi North 15.0 mph 24.2 mph N/A   Overcast
4:15 AM 50.7 °F 41.0 °F 69% 30.12 in 10.0 mi North 17.3 mph 24.2 mph N/A   Overcast
4:34 AM 50.4 °F 41.9 °F 73% 30.13 in 10.0 mi North 11.5 mph 19.6 mph N/A   Overcast
4:54 AM 50.4 °F 41.2 °F 71% 30.14 in 10.0 mi North 11.5 mph 23.0 mph N/A   Overcast
5:15 AM 50.0 °F 41.0 °F 71% 30.14 in 10.0 mi North 16.1 mph 23.0 mph N/A   Overcast
5:34 AM 50.0 °F 40.8 °F 71% 30.14 in 10.0 mi North 16.1 mph 23.0 mph N/A   Overcast
5:55 AM 49.8 °F 40.1 °F 69% 30.15 in 10.0 mi North 11.5 mph 24.2 mph N/A   Overcast
6:15 AM 49.5 °F 40.1 °F 70% 30.15 in 10.0 mi North 16.1 mph 23.0 mph N/A   Overcast
6:34 AM 49.5 °F 39.4 °F 68% 30.16 in 10.0 mi North 11.5 mph 20.7 mph N/A   Overcast
6:55 AM 49.5 °F 38.8 °F 67% 30.16 in 10.0 mi North 12.7 mph 21.9 mph N/A   Overcast
7:15 AM 48.7 °F 41.0 °F 75% 30.17 in 10.0 mi NNE 6.9 mph 11.5 mph N/A   Overcast
7:34 AM 48.2 °F 41.0 °F 76% 30.18 in 10.0 mi NE 10.4 mph - N/A   Overcast
7:55 AM 48.9 °F 39.9 °F 71% 30.18 in 10.0 mi NNE 17.3 mph 21.9 mph N/A   Overcast
8:15 AM 49.1 °F 39.2 °F 69% 30.18 in 10.0 mi North 12.7 mph 21.9 mph N/A   Overcast
8:34 AM 48.7 °F 39.2 °F 70% 30.19 in 10.0 mi NNE 11.5 mph 19.6 mph N/A   Overcast
8:55 AM 48.6 °F 38.5 °F 68% 30.19 in 10.0 mi NNE 15.0 mph 18.4 mph N/A   Mostly Cloudy
9:15 AM 48.6 °F 38.5 °F 68% 30.19 in 10.0 mi NNE 13.8 mph 19.6 mph N/A   Overcast
9:34 AM 48.7 °F 39.2 °F 70% 30.19 in 10.0 mi North 11.5 mph 21.9 mph N/A   Overcast
9:55 AM 48.9 °F 39.0 °F 69% 30.20 in 10.0 mi NNE 13.8 mph 19.6 mph N/A   Overcast
10:14 AM 48.7 °F 39.2 °F 70% 30.20 in 10.0 mi North 9.2 mph 18.4 mph N/A   Mostly Cloudy
10:35 AM 49.8 °F 40.5 °F 70% 30.21 in 10.0 mi North 16.1 mph 19.6 mph N/A   Overcast
10:55 AM 49.3 °F 39.4 °F 69% 30.21 in 10.0 mi North 15.0 mph 20.7 mph N/A   Mostly Cloudy
11:14 AM 50.2 °F 41.4 °F 72% 30.21 in 10.0 mi North 11.5 mph 17.3 mph N/A   Mostly Cloudy
11:35 AM 51.4 °F 41.2 °F 68% 30.22 in 10.0 mi North 16.1 mph 20.7 mph N/A   Mostly Cloudy
11:55 AM 51.6 °F 42.3 °F 70% 30.22 in 10.0 mi North 11.5 mph 21.9 mph N/A   Scattered Clouds
12:14 PM 50.7 °F 41.2 °F 70% 30.22 in 10.0 mi North 13.8 mph 20.7 mph N/A   Mostly Cloudy
12:35 PM 51.3 °F 42.4 °F 72% 30.22 in 10.0 mi North 11.5 mph 18.4 mph N/A   Mostly Cloudy
12:54 PM 52.7 °F 42.8 °F 69% 30.22 in 10.0 mi North 12.7 mph - N/A   Mostly Cloudy
1:15 PM 52.7 °F 41.4 °F 65% 30.22 in 10.0 mi North 13.8 mph 19.6 mph N/A   Scattered Clouds
1:35 PM 53.2 °F 43.0 °F 68% 30.22 in 10.0 mi North 10.4 mph 17.3 mph N/A   Scattered Clouds
1:54 PM 53.1 °F 42.4 °F 67% 30.22 in 10.0 mi North 11.5 mph 16.1 mph N/A   Scattered Clouds
2:15 PM 53.2 °F 42.1 °F 66% 30.21 in 10.0 mi North 10.4 mph - N/A   Clear
2:35 PM 54.0 °F 42.4 °F 65% 30.21 in 10.0 mi North 9.2 mph - N/A   Clear
2:54 PM 54.1 °F 43.3 °F 67% 30.21 in 10.0 mi North 9.2 mph - N/A   Clear
3:15 PM 54.1 °F 42.6 °F 65% 30.21 in 10.0 mi North 11.5 mph - N/A   Clear
3:35 PM 54.7 °F 42.4 °F 63% 30.21 in 10.0 mi North 10.4 mph - N/A   Clear
3:54 PM 54.1 °F 42.1 °F 64% 30.20 in 10.0 mi North 11.5 mph - N/A   Clear
4:15 PM 54.9 °F 41.4 °F 60% 30.19 in 10.0 mi North 8.1 mph 16.1 mph N/A   Clear
4:34 PM 55.6 °F 41.9 °F 60% 30.19 in 10.0 mi NNW 8.1 mph - N/A   Clear
4:54 PM 55.0 °F 41.5 °F 60% 30.19 in 10.0 mi NNW 9.2 mph - N/A   Clear
5:15 PM 55.4 °F 42.1 °F 61% 30.19 in 10.0 mi North 5.8 mph - N/A   Clear
5:34 PM 55.6 °F 43.0 °F 63% 30.18 in 10.0 mi NNW 5.8 mph - N/A   Clear
5:55 PM 55.8 °F 42.3 °F 60% 30.18 in 10.0 mi North 5.8 mph - N/A   Clear
6:15 PM 55.6 °F 41.4 °F 59% 30.19 in 10.0 mi NW 6.9 mph - N/A   Clear
6:34 PM 55.6 °F 41.2 °F 58% 30.19 in 10.0 mi NNW 6.9 mph - N/A   Clear
6:55 PM 55.4 °F 38.5 °F 53% 30.19 in 10.0 mi North 5.8 mph - N/A   Clear
7:14 PM 54.9 °F 38.1 °F 53% 30.19 in 10.0 mi North 5.8 mph - N/A   Clear
7:35 PM 54.1 °F 38.3 °F 55% 30.18 in 10.0 mi North 3.5 mph - N/A   Clear
7:54 PM 53.8 °F 37.8 °F 55% 30.18 in 10.0 mi North 4.6 mph - N/A   Clear
8:15 PM 53.2 °F 39.0 °F 59% 30.18 in 10.0 mi North 5.8 mph - N/A   Clear
8:35 PM 53.4 °F 38.7 °F 57% 30.18 in 10.0 mi NNW 4.6 mph - N/A   Clear
8:54 PM 53.6 °F 38.8 °F 57% 30.18 in 10.0 mi NNW 4.6 mph - N/A   Clear
9:15 PM 53.4 °F 39.6 °F 59% 30.18 in 10.0 mi North 4.6 mph - N/A   Clear
9:35 PM 53.1 °F 40.3 °F 62% 30.19 in 10.0 mi NNW 3.5 mph - N/A   Clear
9:54 PM 53.1 °F 41.2 °F 64% 30.18 in 10.0 mi NNW 5.8 mph - N/A   Clear
10:15 PM 53.1 °F 41.4 °F 64% 30.18 in 10.0 mi NNW 3.5 mph - N/A   Clear
10:35 PM 52.5 °F 41.0 °F 65% 30.18 in 10.0 mi North 3.5 mph - N/A   Clear
10:54 PM 52.9 °F 41.0 °F 64% 30.17 in 10.0 mi NNW 3.5 mph - N/A   Clear
11:15 PM 52.7 °F 41.4 °F 65% 30.18 in 10.0 mi NNW 3.5 mph - N/A   Clear
11:34 PM 52.7 °F 41.0 °F 64% 30.17 in 10.0 mi North 3.5 mph - N/A   Clear
11:55 PM 45.3 °F 42.1 °F 88% 30.17 in 10.0 mi Calm Calm - N/A   Clear